Weather observations for the past three days for
Valparaiso / Eglin Air Force Base
Imperial (Metric)
Date Time (cdt) Wind (mph) Vis. (mi.) Weather Sky Cond. Temperature (ºF) Relative Humidity Wind Chill (°F) Heat Index (°F) Pressure Precipitation (in)
Air Dwpt 6 hour altimeter (in) sea level (mb) 1 hr 3 hr 6 hr
Max. Min.
16 03:55 Calm 10.00 Fair CLR 79.9 76.3 89% 85 29.99 1016.1
16 02:55 W 3 10.00 Overcast BKN019 OVC037 81.9 76.8 85% 90 29.98 1015.8
16 01:55 SE 6 10.00 Fair CLR 84 75.9 77% 93 29.99 1016.1
16 00:55 Calm 10.00 Fair CLR 83.7 76.5 87.8 83.3 79% 93 30.01 1016.8
15 23:55 Calm 10.00 Fair CLR 84.6 77.2 79% 95 30.03 1017.5
15 22:55 SE 5 10.00 Fair CLR 85.1 77 77% 96 30.02 1017.1
15 21:55 Calm 10.00 Mostly Cloudy SCT019 BKN024 85.5 77 76% 96 30.02 1017.1
15 20:55 SE 5 10.00 Fair CLR 84.9 76.8 77% 95 30 1016.5
15 19:55 S 6 10.00 Fair CLR 86.5 77.2 74% 98 30 1016.5
15 18:55 SE 7 10.00 Fair CLR 87.8 75.4 92.7 87.8 67% 98 29.99 1016.1
15 17:55 SE 9 10.00 Fair CLR 90 76.1 64% 102 29.98 1015.8
15 16:55 SE 9 10.00 Fair CLR 91 75.2 60% 102 29.97 1015.5
15 15:55 SE 10 10.00 Fair CLR 92.5 75.9 59% 105 29.98 1015.8
15 14:55 SE 12 10.00 A Few Clouds FEW032 91 77 64% 105 30.01 1016.8
15 13:55 S 6 10.00 Mostly Cloudy FEW090 SCT170 BKN200 89.1 77 68% 102 30.04 1017.8
15 12:55 SE 13 10.00 Mostly Cloudy FEW110 SCT140 BKN180 BKN200 88.3 76.3 90 81.9 68% 100 30.07 1018.8
15 11:55 SE 10 10.00 Mostly Cloudy FEW033 FEW046 FEW110 SCT150 BKN190 89.1 77 68% 102 30.08 1019.2
15 10:55 NE 3 10.00 A Few Clouds FEW032 FEW180 88.9 75.6 65% 100 30.07 1018.8
15 09:55 Calm 10.00 Fair CLR 89.1 74.7 63% 99 30.1 1019.9
15 08:55 N 5 10.00 Fair CLR 86.5 74.1 67% 95 30.11 1020.2
15 07:55 NW 6 10.00 Fair CLR 83.1 74.3 75% 90 30.1 1019.9
15 06:55 N 3 10.00 Fair CLR 81.7 74.5 83.8 77.4 79% 88 30.07 1018.8
15 05:55 NW 5 10.00 Fair CLR 77.5 74.3 90% 79 30.06 1018.5
15 04:55 NW 5 10.00 Fair CLR 80.1 76.1 88% 85 30.04 1017.8
15 03:55 Calm 10.00 Fair CLR 81.3 76.3 85% 88 30.02 1017.1
15 02:55 NW 3 10.00 Fair CLR 81.5 76.5 85% 89 30.02 1017.1
15 01:55 W 3 10.00 Fair CLR 82.6 76.5 82% 91 30.05 1018.2
15 00:55 W 6 10.00 A Few Clouds FEW210 83.7 77.2 88.3 83.1 81% 93 30.07 1018.8
14 23:55 W 3 10.00 Fair CLR 84.2 77.4 80% 95 30.08 1019.2
14 22:55 W 3 10.00 Fair CLR 84.7 77 78% 95 30.08 1019.2
14 21:55 W 3 10.00 Fair CLR 85.5 77 76% 96 30.08 1019.2
14 20:55 W 3 10.00 Fair CLR 86.2 76.5 73% 97 30.08 1019.2
14 19:55 W 6 10.00 Fair CLR 87.1 76.8 72% 99 30.06 1018.5
14 18:55 SW 8 10.00 Fair CLR 88.2 77 93 87.6 70% 100 30.06 1018.5
14 17:55 SW 12 10.00 Fair CLR 90.1 75.2 62% 101 30.06 1018.5
14 16:55 SW 13 10.00 Fair CLR 91.2 76.3 62% 104 30.05 1018.2
14 15:55 SW 13 10.00 Fair CLR 91.2 76.8 63% 105 30.06 1018.5
14 14:55 SW 12 10.00 Fair CLR 91.8 76.3 61% 104 30.07 1018.8
14 13:55 SW 13 10.00 Thunderstorm in Vicinity CLR 91.8 75.4 59% 103 30.11 1020.2
14 12:55 SW 14 10.00 Fair CLR 92.5 77 93.4 82.2 61% 106 30.12 1020.5
14 11:55 S 8 10.00 Fair CLR 91.6 77.2 63% 106 30.13 1020.9
14 10:55 Calm 10.00 A Few Clouds FEW033 90 76.1 64% 102 30.14 1021.2
14 09:55 NW 3 10.00 Partly Cloudy SCT030 89.2 73.4 60% 98 30.15 1021.6
14 08:55 N 3 10.00 A Few Clouds FEW017 86.9 75.4 69% 97 30.15 1021.6
14 07:55 N 3 10.00 Fair CLR 84.4 77.4 80% 95 30.15 1021.6
14 05:55 Calm 10.00 Mostly Cloudy BKN015 80.6 76.6 88% 87 30.14 1021.2
14 04:55 N 3 10.00 Fair CLR 79.7 76.1 89% 85 30.11 1020.2
14 03:55 Calm 10.00 Fair CLR 80.8 76.1 86% 87 30.1 1019.9
14 02:55 Calm 10.00 Fair CLR 81.3 76.6 86% 88 30.1 1019.9
14 01:55 Calm 10.00 Fair CLR 81.5 77.5 88% 89 30.11 1020.2
14 00:55 NW 3 10.00 Fair CLR 82.4 77.7 88.3 82.4 86% 91 30.13 1020.9
13 23:55 W 3 10.00 Fair CLR 84.6 78.4 82% 96 30.15 1021.6
13 22:55 W 3 10.00 Fair CLR 84.6 77.2 79% 95 30.15 1021.6
13 21:55 W 3 10.00 A Few Clouds FEW220 85.6 77.2 76% 97 30.15 1021.6
13 20:55 SW 6 10.00 Fair CLR 86.4 77.7 76% 99 30.14 1021.2
13 19:55 SW 5 10.00 Fair CLR 86.9 75.9 70% 97 30.13 1020.9
13 18:55 SW 7 10.00 Fair CLR 88 75.9 93.2 88 68% 99 30.13 1020.9
13 17:55 SW 9 10.00 Fair CLR 88.5 76.1 67% 100 30.13 1020.9
13 16:55 SW 5 10.00 Thunderstorm SCT060 88.3 76.3 68% 100 30.14 1021.2
13 15:55 SW 13 10.00 Thunderstorm in Vicinity CLR 91.6 77.5 64% 106 30.12 1020.5
13 14:55 SW 14 10.00 Fair CLR 91.2 75.4 60% 103 30.14 1021.2
13 13:55 SW 15 10.00 A Few Clouds FEW190 92.1 74.7 57% 103 30.15 1021.6
13 12:55 S 9 10.00 Partly Cloudy FEW085 FEW160 SCT200 93.4 72.5 94.8 79.9 51% 102 30.16 1021.9
13 11:55 SW 3 10.00 Fair CLR 93 69.1 46% 98 30.17 1022.2
13 10:55 N 3 10.00 A Few Clouds FEW040 92.1 71.2 51% 99 30.18 1022.6
13 09:55 N 7 10.00 Fair CLR 90 72.7 57% 98 30.18 1022.6
13 08:55 N 7 10.00 Fair CLR 86.9 73.6 65% 95 30.18 1022.6
13 07:55 N 6 10.00 Fair CLR 84 75.6 76% 92 30.17 1022.2
13 06:55 NW 3 10.00 Fair CLR 79.7 75.4 82 77 87% 84 30.16 1021.9
13 05:55 NW 3 10.00 Fair CLR 77.7 73.4 87% 80 30.13 1020.9
13 04:55 Calm 10.00 Fair CLR 77.5 73 86% 79 30.12 1020.5
Date Time (cdt) Wind (mph) Vis. (mi.) Weather Sky Cond. Air Dwpt Max. Min. Relative Humidity Wind Chill (°F) Heat Index (°F) altimeter (in) sea level (mb) 1 hr 3 hr 6 hr
6 hour
Temperature (ºF) Pressure Precipitation (in)